Location: Oumpou
(15.1310°N, 12.7256°W)
Time: 16:00:16
(UTC+00:00)

Daily predictions for brighter satellites

Satellite Brightness Start Highest point End
(mag) Time Altitude Azimuth Time Altitude Azimuth Time Altitude Azimuth
deb Ariane 4.2 18:49:16 10° SW 18:51:21 23° SSE 18:55:09 10° ESE
GPS 2-18 Rocket1 3.2 18:50:38 10° WSW 18:54:37 76° SSE 18:58:38 10° ENE
ASTRO E2 3.8 18:51:23 10° NW 18:54:52 28° NNE 18:58:20 10° E
Meteor 2-10 4.0 18:50:13 10° S 18:55:27 82° E 19:00:32 10° N
CZ-4C R/B 3.4 18:50:19 10° N 18:57:59 47° ENE 19:05:59 10° SE
YAOGAN 6 3.6 18:56:44 10° SE 18:59:52 26° ENE 19:02:58 10° NNE
Cosmos 2239 Rocket 4.5 18:53:56 10° N 18:59:57 60° E 19:06:00 10° SSE
CORIOLIS 4.5 18:56:09 10° S 19:01:28 73° WSW 19:06:47 10° NNW
NOSS 3-2 (C) 3.7 18:58:22 10° S 19:03:22 37° ESE 19:08:32 10° NE
IUS-13 SRM-1 3.0 19:01:24 10° WNW 19:04:12 85° SSW 19:15:35 10° ESE
USA 116 3.6 19:01:20 10° N 19:04:44 82° W 19:08:34 10° SSW
COSMO-SKYMED 1 3.8 19:01:22 10° N 19:05:31 46° WNW 19:09:39 10° SSW
Cosmos 1821 Rocket 4.0 19:01:21 10° N 19:07:31 83° E 19:13:45 10° S
FengYun 1-2 T 4.4 19:08:27 10° SSE 19:13:57 55° ENE 19:19:25 10° N
Cosmos 1825 Rocket 4.2 19:09:55 10° NNW 19:14:14 61° W 19:18:36 10° S
Atlas Centaur 2 2.1 19:09:55 10° WNW 19:16:28 80° NNE 19:20:50 14° ESE
Cosmos 1953 Rocket 3.4 19:12:31 10° N 19:16:52 85° E 19:21:10 10° S
Cosmos 1934 Rocket 4.0 19:12:25 10° N 19:18:41 60° E 19:24:56 10° SSE
Envisat 3.0 19:14:19 10° SSE 19:19:23 88° ENE 19:24:28 10° N
Cosmos 1908 3.7 19:17:00 10° SSW 19:20:52 63° W 19:24:43 10° N
Cosmos 1535 Rocket 4.4 19:17:09 10° N 19:23:15 68° E 19:29:17 10° SSE
GPS 2-12 Rocket1 3.7 19:21:21 10° WNW 19:25:46 44° N 19:28:15 22° ENE
Intelsat 5-2 Rocket 3.9 19:26:26 10° WNW 19:30:18 74° NNE 19:37:49 19° ESE
Cosmos 1812 Rocket 3.5 19:27:23 10° S 19:31:40 58° E 19:35:59 10° NNE
Cosmos 2297 3.9 19:27:36 10° S 19:32:58 45° ESE 19:37:50 13° NE
Cosmos 2278 Rocket 3.7 19:28:39 10° SW 19:33:50 37° WNW 19:39:03 10° N
ATLAS 3B R/B 2.8 19:33:58 10° S 19:40:42 54° ESE 19:45:34 18° NE
YAOGAN 1 2.4 19:36:58 10° SSE 19:41:17 83° ENE 19:45:36 10° N
Lacrosse 5 rocket 3.1 19:38:39 10° N 19:40:04 17° NNE 19:40:04 17° NNE
SWIFT 3.5 19:39:08 10° SW 19:42:49 28° SSE 19:43:35 26° SE
ADEOS Rocket 3.8 19:39:49 10° NE 19:46:20 35° E 19:52:17 10° SSE
CZ-4 R/B 2.5 19:47:03 10° S 19:50:56 46° W 19:54:55 10° NNW
CENTAUR R/B 2.0 19:47:37 10° SSW 19:52:56 73° ESE 19:56:15 26° NNE
Cosmos 44 3.4 19:48:07 10° SSW 19:53:21 81° WNW 19:56:44 21° NNE
Cosmos 1328 4.4 19:49:47 10° NNW 19:53:38 56° W 19:57:29 10° S
CSL-04 Rocket 3.9 19:49:57 10° S 19:55:29 74° WSW 20:01:01 10° NNW
Ariane Rocket 3.4 20:03:12 43° NNE 20:03:12 43° NNE 20:06:57 10° N
Cosmos 1153 Rocket 4.4 19:56:34 10° N 20:02:31 54° E 20:08:31 10° SSE
NOAA 11 4.0 19:58:09 10° SSE 20:03:36 73° ENE 20:09:01 10° N
Cosmos 468 Rocket 3.8 20:06:24 10° S 20:11:42 79° ESE 20:12:08 73° NE
CZ-2C R/B 3.7 20:13:43 69° NNW 20:14:12 79° WNW 20:18:52 10° SSW
ARIANE 44L R/B 4.1 20:15:12 10° WSW 20:21:26 27° SSW 20:21:26 27° SSW
Meteor 2-1 Rocket 4.3 20:19:01 10° SSW 20:24:29 69° W 20:27:38 26° N
SEDSat Delta rocket 3.8 20:19:44 10° WSW 20:23:36 52° W 20:23:36 52° W
USA 234 3.9 20:21:08 22° NNE 20:25:13 51° NW 20:31:30 10° SW
BREEZE-M DEB (TANK) 4.1 20:36:39 10° WSW 20:44:57 42° WNW 20:44:57 42° WNW
CZ-3B R/B 4.3 20:33:59 10° WNW 20:56:31 68° NNE 21:00:42 58° ENE
Atlas Centaur 2 4.3 21:01:12 10° W 21:03:30 17° WSW 21:03:30 17° WSW
ATLAS 5 CENTAUR R/B 4.2 21:30:24 10° WSW 21:40:02 90° NNW 22:48:25 10° E
